Wind_Speed
39 38 36 37 34 34 33 28 10 6 9 17 14 37 40 38 37 33 32 29 30 34 34 33 33 33 34 35 36 37 38 37 37 38 37 36 36 34
39 34 36 34 35 33 35 38 31 14 5 22 30 18 38 39 37 36 33 31 29 29 30 29 30 31 33 35 37 38 40 40 40 41 41 42 41 38
20 34 38 37 35 35 36 34 36 29 6 16 29 33 26 36 37 36 33 32 30 29 27 27 28 27 28 33 35 39 41 42 44 45 45 46 44 42
29 21 37 39 37 37 35 36 34 35 22 6 25 28 27 32 36 37 35 32 31 29 29 27 25 24 24 27 30 33 36 41 45 45 47 49 47 46
35 30 37 42 39 37 36 34 35 31 31 19 12 22 29 26 31 30 34 34 31 29 24 22 21 20 21 23 26 30 33 34 35 39 44 48 50 49
43 41 38 46 45 41 36 37 34 31 30 22 18 15 22 23 27 25 25 29 29 26 23 22 20 20 21 22 25 27 28 30 33 35 36 38 43 50
35 39 47 46 45 44 37 34 33 31 25 24 16 12 13 13 23 21 22 30 29 29 26 22 19 18 16 17 19 22 24 26 29 32 35 38 42 44
40 39 56 54 50 46 45 40 42 33 27 25 23 18 22 26 29 27 22 12 4 26 23 17 12 10 8 8 12 16 20 23 26 28 33 36 39 39
39 38 42 42 44 45 41 43 43 44 43 38 29 26 22 34 34 28 30 23 15 20 23 12 10 7 2 5 10 13 16 18 18 19 22 26 29 31
27 28 30 33 34 34 36 34 31 34 37 33 33 31 32 34 33 31 31 27 17 22 17 6 10 5 2 1 6 10 14 16 19 20 19 16 11 16
13 9 14 26 35 35 32 28 18 17 18 28 27 25 21 22 24 25 20 16 4 5 15 9 8 9 4 4 5 8 9 11 14 16 14 12 8 3
12 9 11 20 23 26 26 32 27 21 24 19 23 25 21 20 20 18 21 20 9 3 15 11 13 10 5 6 7 4 5 8 10 14 14 14 21 31
21 25 22 8 21 25 20 26 32 24 22 19 16 16 11 12 12 12 15 17 14 5 16 17 13 12 6 7 6 6 6 8 10 12 13 16 17 23
26 24 25 19 20 23 26 19 30 29 26 25 20 17 15 13 13 12 11 11 10 6 21 16 10 13 10 6 5 7 7 8 10 14 16 15 15 16
23 21 23 27 28 26 27 30 26 25 25 24 21 20 16 17 17 17 15 14 14 17 20 11 6 16 11 12 10 11 8 8 9 12 13 14 16 15
25 26 29 29 27 25 22 21 17 16 19 23 23 22 18 17 17 17 19 18 21 17 11 9 11 14 13 14 12 15 14 6 13 15 19 17 14 11
22 27 27 23 26 26 27 24 21 18 19 21 22 20 18 17 16 15 15 11 12 12 18 16 14 14 16 17 17 17 15 18 16 15 17 18 15 12
25 22 21 21 22 22 23 21 24 23 18 19 19 19 17 16 16 15 16 19 18 16 19 22 26 27 23 23 17 19 19 19 16 15 16 18 16 13
27 23 22 22 21 23 24 21 21 22 18 18 18 18 17 16 17 17 18 19 17 17 17 17 15 15 5 4 12 12 20 19 17 16 15 14 15 13
26 23 22 22 23 23 24 23 21 20 19 18 17 18 18 18 17 17 17 18 17 16 15 11 12 12 16 6 10 20 13 18 18 18 17 16 15 14
26 27 28 27 27 25 24 23 20 19 18 18 16 16 17 20 20 21 21 20 19 15 12 12 11 11 22 27 16 16 18 14 14 15 17 17 10 9
29 29 29 28 26 24 22 21 20 20 18 16 15 15 16 18 20 19 19 20 20 20 19 18 18 20 19 18 19 17 19 18 16 13 9 4 4 6
29 27 27 26 24 23 22 21 20 19 17 16 16 16 16 18 17 18 21 23 24 21 20 19 17 20 20 22 23 22 22 19 17 16 16 14 14 15
Wind_Direction
209 206 205 206 210 214 207 191 171 188 217 214 198 223 228 230 231 229 229 225 223 226 229 234 234 237 240 242 244 247 248 248 249 250 251 250 251 252
211 204 206 205 209 213 212 210 202 181 206 208 212 214 222 227 230 231 229 230 226 227 228 233 238 241 245 245 247 249 251 252 254 253 253 252 252 253
232 215 208 203 206 208 213 212 206 205 171 207 220 217 217 219 223 227 230 230 231 230 230 234 239 247 250 249 253 253 254 255 256 257 256 255 253 251
254 278 233 209 206 207 209 213 217 216 213 173 203 213 214 219 221 221 224 227 231 231 231 233 240 247 250 255 260 262 262 259 256 258 258 259 254 254
240 242 263 212 205 205 206 210 218 217 215 201 181 208 211 219 216 222 225 225 230 235 232 227 231 242 249 252 258 261 262 265 266 263 263 265 260 257
228 241 262 217 209 206 205 206 207 204 206 196 190 186 202 211 215 210 216 221 220 217 215 220 227 238 247 258 263 268 270 270 273 273 271 269 262 259
220 234 245 220 208 205 202 201 200 198 198 204 195 180 181 189 200 206 206 216 216 216 207 210 222 236 248 261 268 276 278 279 279 280 278 275 271 267
213 229 240 231 207 207 209 207 206 198 197 201 203 199 195 200 198 198 196 183 208 208 205 198 212 222 233 262 285 294 297 299 298 293 285 280 275 270
209 221 220 191 200 202 206 212 216 211 210 203 202 205 197 208 202 199 199 199 190 191 194 172 188 186 244 290 305 308 315 316 312 302 291 283 274 266
200 214 211 203 206 207 209 208 210 208 211 214 211 206 214 219 215 213 208 198 169 168 179 139 178 158 191 303 353 358 0 357 356 355 349 345 313 265
189 219 194 202 207 213 200 183 154 145 178 206 203 208 205 214 213 205 176 168 53 164 180 159 164 142 141 80 54 39 30 27 18 16 16 22 21 59
96 90 123 198 195 186 191 173 146 146 141 136 138 146 151 157 164 183 191 167 141 149 190 164 154 161 123 105 100 99 81 77 69 63 64 91 109 109
53 52 61 69 176 176 184 176 169 147 135 140 141 122 127 149 169 196 193 200 161 144 183 175 168 161 108 128 126 123 111 98 90 85 83 93 102 109
47 60 71 92 116 129 145 153 152 150 151 144 137 118 131 128 136 150 156 168 178 194 172 178 158 162 140 139 141 131 111 102 106 100 96 97 101 110
60 68 83 90 98 105 121 136 142 147 148 132 123 127 135 133 130 124 123 126 127 138 163 172 156 168 162 142 142 157 131 96 109 115 108 103 105 112
68 65 69 77 83 89 90 99 106 119 125 123 122 127 129 129 126 129 125 125 119 105 123 143 139 161 128 138 142 141 139 127 120 107 103 100 101 109
60 60 54 54 62 66 67 76 88 95 104 118 123 127 125 128 119 131 129 122 111 107 97 106 118 122 113 126 108 130 124 126 128 123 107 96 91 97
58 56 55 54 60 60 64 63 76 89 99 113 120 123 121 121 118 116 117 110 106 105 108 117 118 106 95 82 117 126 129 128 130 128 131 117 108 108
54 51 51 51 54 60 63 61 67 81 95 99 104 109 112 112 111 109 108 107 102 107 117 133 138 133 106 108 90 125 139 142 137 130 129 121 108 108
42 45 49 51 53 56 61 65 73 87 94 100 108 114 119 114 109 107 110 109 106 106 109 118 129 127 123 138 119 77 141 135 134 122 113 119 116 118
33 36 40 42 49 59 67 73 78 83 89 95 101 108 118 123 121 121 119 120 121 113 98 93 106 122 124 122 101 88 98 123 130 122 128 127 121 127
39 44 50 59 56 60 72 76 80 84 87 93 101 113 120 122 121 122 124 121 119 112 107 112 121 129 123 115 108 106 105 109 116 125 122 141 159 149
48 52 56 59 62 67 70 75 80 84 88 95 99 105 115 113 119 121 124 123 121 118 124 119 117 122 120 123 120 115 111 108 111 108 92 85 91 99
Height
699 702 707 710 719 725 727 732 737 746 746 743 741 743 747 750 754 760 763 766 769 773 777 781 784 787 790 793 796 799 801 804 805 807 810 811 812 813
691 692 698 704 711 718 722 725 728 730 736 734 735 735 740 744 747 753 756 760 764 767 771 774 777 781 783 786 788 791 794 796 798 800 800 802 804 806
682 687 692 694 703 707 715 719 721 723 725 729 731 733 735 738 740 746 749 754 757 762 766 769 771 774 776 779 782 784 786 788 789 790 791 793 793 795
668 677 686 689 693 698 704 708 713 716 720 725 726 729 730 733 735 739 742 747 750 755 760 763 766 769 770 773 775 776 777 778 779 781 782 782 782 784
665 668 685 681 682 687 691 697 704 708 714 718 723 725 725 730 732 735 738 741 745 749 755 758 760 762 764 765 766 767 768 768 769 770 771 771 771 772
656 664 670 669 671 675 680 684 694 699 705 710 716 719 720 724 728 730 734 736 739 744 749 753 754 756 757 758 758 759 760 760 760 759 758 758 758 760
644 651 657 660 662 665 669 675 685 689 697 702 707 710 713 717 721 725 728 730 735 740 741 744 747 750 751 751 751 752 753 753 752 750 748 747 746 746
642 651 648 652 651 656 661 667 674 680 687 693 698 700 701 706 711 716 722 726 730 730 735 738 742 744 745 746 745 746 747 747 744 741 738 735 733 732
635 637 611 623 638 649 656 663 667 671 673 679 686 686 692 696 702 708 712 715 716 722 728 734 738 741 743 743 741 740 741 741 738 734 729 724 721 720
620 621 619 625 633 643 649 654 660 663 670 675 678 679 683 690 694 699 705 709 712 717 723 728 734 737 739 740 739 738 739 739 735 730 725 718 713 712
610 615 618 623 629 637 637 645 658 660 661 669 670 676 680 686 690 694 700 709 705 712 718 723 731 735 739 738 739 740 741 740 736 731 726 720 715 711
612 616 614 617 622 624 631 644 653 661 660 660 669 671 677 683 686 691 695 698 705 714 714 720 726 732 737 738 739 744 743 740 739 736 730 727 724 719
619 615 610 614 619 627 634 641 638 650 657 668 674 667 677 681 682 691 694 696 697 704 709 714 722 725 728 736 742 743 744 741 739 738 737 738 737 732
625 632 628 630 626 628 636 646 649 652 661 663 669 672 682 684 687 691 692 694 697 701 706 713 716 719 725 735 740 743 744 744 742 742 742 742 742 743
643 641 639 637 635 639 645 649 656 660 663 666 670 676 684 687 689 691 693 696 698 704 710 712 714 718 724 728 734 740 744 746 745 745 745 748 749 751
649 648 643 642 649 651 653 653 660 662 664 668 672 680 686 689 691 694 698 701 704 708 712 715 716 720 722 727 731 739 744 747 749 749 750 753 754 757
661 654 656 656 654 657 655 658 662 666 670 674 679 685 689 693 696 699 701 704 708 712 714 716 718 720 724 729 734 740 745 747 751 753 755 758 761 763
669 668 669 668 666 665 665 671 673 674 681 683 686 689 693 697 698 701 703 706 710 714 715 719 720 723 729 736 740 743 747 750 754 754 757 760 763 766
679 678 677 676 677 673 673 679 680 683 687 690 693 694 698 701 703 704 706 710 714 718 720 723 725 727 731 738 746 748 748 752 754 757 761 764 765 768
691 691 689 689 683 682 684 687 690 693 694 696 700 699 702 704 709 711 712 715 718 721 727 729 730 731 733 738 743 750 754 754 757 760 764 767 770 770
702 698 694 688 690 694 694 697 700 700 702 704 706 706 707 711 714 714 716 719 721 726 731 732 734 735 738 740 744 750 754 759 761 760 764 769 772 772
709 704 705 704 706 707 707 707 709 709 709 712 714 714 715 716 717 719 720 722 728 729 733 736 738 739 743 744 749 753 758 760 763 764 767 771 771 771
720 719 716 716 717 717 717 717 717 717 718 719 719 719 719 721 722 722 725 728 730 734 736 739 741 744 748 750 752 756 761 763 764 767 772 776 774 773